Location: Newark
(12.4436°N, 0.6167°W)
Time: 22:27:02
(UTC+00:00)

Transit 4A - All Passes

Search period start: 11 December 2019 00:00
Search period end: 21 December 2019 00:00
Orbit: 870 x 975 km, 66.8° (Epoch: 11 December)

Date Brightness Start Highest point End Pass type
(mag) Time Alt. Az. Time Alt. Az. Time Alt. Az.
11 Dec - 01:49:56 10° NNE 01:53:22 16° ENE 01:56:50 10° ESE night (unlit)
11 Dec - 03:34:12 10° NW 03:39:36 41° WSW 03:45:03 10° S visible
11 Dec - 14:52:53 10° S 14:58:29 33° ESE 15:03:59 10° NE daylight
11 Dec - 16:39:49 10° WSW 16:44:39 23° WNW 16:49:26 10° NNW daylight
12 Dec - 01:57:55 10° N 02:02:47 27° ENE 02:07:39 10° SE night (unlit)
12 Dec - 03:44:18 10° NW 03:48:49 24° WSW 03:53:24 10° SSW visible
12 Dec - 15:01:34 10° S 15:07:45 56° ESE 15:13:47 10° NNE daylight
12 Dec - 16:51:11 10° W 16:54:05 13° WNW 16:56:59 10° NW daylight
13 Dec - 02:06:34 10° N 02:12:07 47° ENE 02:17:43 10° SE night (unlit)
13 Dec - 03:55:25 10° W 03:58:03 13° WSW 04:00:41 10° SW visible
13 Dec - 15:10:41 10° SSW 15:17:01 87° WNW 15:23:14 10° NNE daylight
14 Dec - 02:15:37 10° NNW 02:21:25 81° ENE 02:27:17 10° SSE night (unlit)
14 Dec - 13:37:21 10° SE 13:40:21 14° ESE 13:43:19 10° ENE daylight
14 Dec - 15:20:11 10° SW 15:26:19 53° WNW 15:32:20 10° N daylight
15 Dec - 00:42:56 10° NE 00:44:20 11° ENE 00:45:43 10° ENE night (unlit)
15 Dec - 02:25:01 10° NNW 02:30:41 59° WSW 02:36:26 10° S night (unlit)
15 Dec - 13:44:39 10° SSE 13:49:35 24° ESE 13:54:26 10° NE daylight
15 Dec - 15:30:09 10° SW 15:35:40 32° WNW 15:41:04 10° N daylight
16 Dec - 00:49:41 10° NNE 00:53:46 20° ENE 00:57:52 10° ESE night (unlit)
16 Dec - 02:34:46 10° NW 02:39:55 33° WSW 02:45:08 10° S night (unlit)
16 Dec - 13:52:59 10° S 13:58:50 40° ESE 14:04:35 10° NE daylight
16 Dec - 15:40:46 10° WSW 15:45:04 19° WNW 15:49:18 10° NNW daylight
17 Dec - 00:57:58 10° N 01:03:09 33° ENE 01:08:21 10° SE night (unlit)
17 Dec - 02:45:08 10° WNW 02:49:09 19° WSW 02:53:13 10° SSW night (unlit)
17 Dec - 14:01:49 10° SSW 14:08:05 68° ESE 14:14:14 10° NNE daylight
17 Dec - 15:53:13 10° WNW 15:54:31 11° WNW 15:55:50 10° NW daylight
18 Dec - 01:06:47 10° N 01:12:28 57° ENE 01:18:13 10° SSE night (unlit)
18 Dec - 02:57:33 10° W 02:58:22 10° WSW 02:59:11 10° WSW night (unlit)
18 Dec - 14:11:05 10° SSW 14:17:23 73° WNW 14:23:33 10° NNE daylight
19 Dec - 01:15:57 10° NNW 01:21:45 83° WSW 01:27:38 10° SSE night (unlit)
19 Dec - 12:36:48 10° SE 12:40:41 17° ESE 12:44:32 10° ENE daylight
19 Dec - 14:20:45 10° SW 14:26:42 44° WNW 14:32:32 10° N daylight
19 Dec - 23:41:55 10° NE 23:44:44 14° ENE 23:47:32 10° E night (unlit)
20 Dec - 01:25:28 10° NW 01:31:01 48° WSW 01:36:38 10° S night (unlit)
20 Dec - 12:44:36 10° SSE 12:49:56 29° ESE 12:55:10 10° NE daylight
20 Dec - 14:30:55 10° WSW 14:36:03 26° WNW 14:41:07 10° N daylight
20 Dec - 23:49:35 10° NNE 23:54:09 24° ENE 23:58:45 10° ESE night (unlit)
